Temperature
21 22 22 22 22 21 21 20 20 20 20 20 19 19 19 20 20 20 20 20 21 21 21 21 21 21 21 20 20 19 19 19 18 18 17 17 17 17 16 16 16 16 16 16
21 21 22 22 22 21 21 20 20 20 20 19 19 19 19 19 20 20 20 21 21 21 21 21 21 21 20 20 20 19 19 19 18 18 17 17 17 17 16 16 16 16 15 15
19 20 22 21 21 21 21 20 20 20 20 19 18 18 19 19 20 20 20 21 21 21 21 21 21 21 20 20 20 19 19 18 18 17 17 17 17 17 16 16 16 15 15 15
17 20 21 20 20 20 20 19 19 19 19 18 18 19 20 20 20 20 20 20 21 21 21 21 21 20 20 20 19 19 19 18 18 17 17 17 17 16 16 16 15 15 15 15
15 18 19 20 20 20 19 19 18 18 18 18 19 19 19 20 20 20 20 20 20 21 21 21 20 20 20 20 19 19 18 18 18 17 17 17 16 16 16 15 15 15 15 15
15 18 19 19 20 20 20 19 18 18 17 18 18 17 18 20 20 20 20 20 20 20 20 20 20 20 20 19 19 19 18 18 18 17 17 16 16 16 15 15 15 14 14 14
16 17 18 18 18 20 20 19 18 18 18 18 18 18 20 20 20 20 20 20 20 20 20 19 19 19 19 19 19 18 18 17 17 17 16 16 16 15 15 15 14 14 14 14
14 17 17 17 18 18 17 18 19 18 19 19 19 19 19 20 20 19 19 19 19 19 19 19 19 19 19 18 18 18 17 17 17 16 16 16 15 15 14 14 14 14 14 14
14 15 16 16 17 18 18 18 18 19 19 19 19 19 19 19 19 19 19 19 19 19 19 19 18 18 18 18 18 17 17 17 16 16 16 16 15 15 14 14 14 14 13 13
13 15 15 17 17 18 18 18 19 19 19 19 19 19 19 19 18 19 19 18 18 18 18 18 18 18 18 18 17 17 17 16 16 16 16 15 15 14 14 14 14 13 13 13
13 14 15 17 17 18 18 19 18 18 18 18 19 18 19 18 18 18 18 18 18 18 18 18 18 17 18 17 17 17 16 16 16 15 15 15 14 14 14 14 14 13 13 13
14 15 14 16 18 18 18 18 18 18 18 18 18 18 18 18 18 18 18 17 18 18 18 18 17 17 17 17 17 16 16 16 15 15 15 14 14 14 14 14 13 13 13 13
16 16 16 16 17 17 17 18 17 17 17 17 18 18 18 17 17 17 17 17 17 17 17 17 17 17 17 16 16 16 16 15 15 15 14 14 14 14 14 13 13 13 13 13
16 16 15 16 16 17 17 17 17 17 17 17 17 17 17 17 16 16 16 16 16 16 16 16 16 16 16 16 16 15 15 15 15 14 14 14 14 13 13 13 13 13 13 13
15 16 15 16 16 16 17 16 16 16 16 16 16 16 16 16 16 16 16 15 15 15 15 15 15 15 15 15 15 15 14 14 14 14 14 13 13 13 13 13 13 13 13 13
15 15 15 15 16 16 16 16 16 16 16 16 16 16 16 16 15 15 15 15 15 15 15 15 15 15 15 14 14 14 14 14 14 13 13 13 13 13 13 13 12 13 12 12
14 14 15 15 15 15 15 15 15 15 15 15 15 15 16 15 15 15 15 14 14 14 14 14 14 14 14 14 14 14 13 13 13 13 13 13 13 13 12 12 12 12 12 12
15 14 15 14 15 15 15 15 15 15 15 15 15 15 15 15 15 14 14 14 14 14 14 14 14 14 13 13 13 13 13 13 13 12 12 12 12 12 12 12 12 12 12 12
14 14 14 14 14 14 14 14 15 15 15 15 15 15 15 14 14 14 14 14 14 13 13 13 13 13 13 13 13 13 13 12 12 12 12 12 12 12 12 12 12 12 11 11
14 14 14 14 14 14 14 14 14 14 14 14 14 14 14 14 14 14 14 13 13 13 13 13 13 12 12 12 12 12 12 12 12 12 12 12 12 11 11 11 11 11 11 11
13 14 14 14 14 14 14 14 14 14 14 14 14 14 14 14 13 13 13 13 13 13 13 12 12 12 12 12 12 12 12 12 12 11 11 11 11 11 11 11 11 11 11 11
13 13 13 13 13 14 14 14 14 14 14 14 14 13 13 13 13 13 13 13 13 12 12 12 12 12 12 12 12 12 11 11 11 11 11 11 11 11 11 11 11 11 11 11
13 13 13 13 13 13 13 13 13 14 14 13 13 13 13 13 13 13 13 12 12 12 12 12 12 11 11 11 11 11 11 11 11 11 11 11 10 10 10 10 10 10 10 10
13 13 13 13 13 13 13 13 13 13 13 13 13 13 13 13 13 12 12 12 12 12 12 11 11 11 11 11 11 11 11 11 11 11 10 10 10 10 10 10 10 10 10 10
12 12 13 13 13 13 13 13 13 13 13 13 13 13 12 12 12 12 12 12 11 11 11 11 11 11 11 11 11 11 10 10 10 10 10 10 10 10 10 10 10 10 10 10
12 12 12 12 12 13 13 13 13 13 13 12 12 12 12 12 12 12 11 11 11 11 11 11 10 10 10 10 10 10 10 10 10 10 10 10 9 9 9 9 9 9 9 9
12 12 12 12 12 12 12 12 12 12 12 12 12 12 11 11 11 11 11 11 11 10 10 10 10 10 10 10 10 10 10 10 10 10 9 9 9 9 9 9 9 9 9 9
Wind_Speed
2 3 4 3 4 5 5 7 8 7 6 7 5 5 4 4 4 5 6 7 7 7 6 5 5 6 6 6 5 5 5 5 4 3 2 2 2 2 2 2 2 1 2 1
1 1 3 2 2 5 4 4 4 3 4 4 2 1 2 3 4 5 5 6 7 7 7 6 6 6 6 6 6 6 6 5 3 3 3 3 2 2 2 2 2 2 2 1
2 2 3 1 3 5 3 3 6 6 6 1 1 2 4 5 5 6 6 6 6 6 6 6 6 7 7 7 6 6 5 5 4 4 3 3 3 3 2 2 2 2 2 2
2 3 4 7 2 4 5 1 2 2 2 3 3 3 2 2 4 4 4 4 5 5 5 5 6 6 5 6 6 6 5 5 4 5 4 4 3 3 2 1 2 1 1 1
4 4 3 4 1 3 4 1 0 3 1 2 2 3 2 1 2 3 3 4 4 4 4 5 6 7 7 6 6 6 6 5 5 5 5 4 4 3 2 2 1 1 1 1
4 5 6 6 3 1 5 2 2 2 2 2 3 2 4 2 1 1 1 2 2 3 4 5 5 7 7 7 6 7 7 6 6 5 5 5 4 3 2 2 2 2 1 0
4 3 5 4 4 2 5 6 3 2 3 4 3 5 4 1 1 2 2 3 3 4 4 3 4 6 6 6 6 5 4 4 4 4 4 4 4 3 3 3 3 2 1 0
4 4 6 3 2 4 5 2 2 2 2 3 3 2 1 1 1 1 2 3 3 4 3 3 4 6 5 5 4 3 4 4 5 5 5 4 5 4 4 4 3 3 2 1
6 5 4 2 3 2 2 1 1 1 1 2 2 2 1 1 1 1 2 3 3 3 3 2 3 5 5 4 4 5 4 4 5 5 4 4 5 5 4 4 4 3 3 3
0 3 3 2 1 1 1 1 0 1 1 1 2 3 3 2 2 2 1 2 3 3 3 2 2 3 4 4 4 5 4 4 4 4 4 3 3 4 4 5 5 4 4 4
1 3 3 3 2 1 1 1 1 1 1 2 3 4 4 4 4 3 3 3 3 4 4 4 3 3 3 4 5 5 4 4 3 3 4 3 3 3 4 4 5 6 6 5
5 6 4 5 5 2 1 1 0 1 2 2 3 5 4 4 4 4 4 4 4 4 5 5 4 4 4 4 6 6 4 4 3 3 3 3 3 2 1 3 5 7 7 7
5 4 4 5 4 3 3 2 2 2 3 3 3 4 3 3 4 4 4 4 5 5 5 5 4 4 4 4 5 6 5 5 4 4 4 4 3 4 3 2 2 4 6 8
3 1 2 3 3 3 2 3 2 2 3 3 2 2 2 2 2 3 4 4 4 4 4 4 4 4 3 4 4 4 5 5 5 4 4 4 4 4 4 4 3 3 4 6
3 3 4 4 3 3 2 1 1 2 2 3 2 2 3 3 4 4 3 3 2 2 3 3 4 4 3 4 5 5 5 4 3 3 3 3 4 4 4 5 5 4 2 3
2 2 2 2 3 3 3 2 3 4 3 3 3 3 4 4 3 3 3 3 4 3 3 3 3 3 3 4 5 4 4 5 4 3 3 3 3 3 3 4 4 5 5 4
3 3 3 4 4 5 5 5 5 5 4 4 5 4 3 2 2 2 3 2 3 3 3 3 3 2 3 4 5 4 3 4 5 4 4 4 4 4 4 4 4 4 5 4
6 7 6 6 6 6 6 5 4 5 4 5 4 3 3 5 5 4 3 2 2 1 1 1 1 1 2 3 4 3 3 3 4 4 4 4 4 5 5 4 5 5 4 3
4 5 5 5 5 5 5 5 5 5 4 4 4 4 5 5 4 4 3 3 2 2 3 2 2 2 2 3 3 3 3 4 4 4 4 5 5 4 4 4 4 4 3 3
4 4 4 4 4 4 5 5 4 4 4 4 4 3 3 3 3 3 3 2 3 3 3 2 2 2 2 3 2 2 3 4 4 3 3 4 4 4 4 4 4 4 4 4
4 4 3 3 4 4 4 4 3 3 3 3 4 4 4 3 3 3 2 2 2 1 2 2 2 2 2 2 2 2 3 3 3 4 4 4 4 4 4 4 4 4 4 4
4 3 3 3 3 3 3 2 1 1 1 1 2 3 3 3 2 1 1 2 2 2 1 1 1 2 2 2 2 3 3 3 3 3 3 3 4 4 4 4 4 4 4 4
3 3 3 3 2 2 2 1 1 1 2 1 2 2 2 2 2 2 1 1 1 2 1 1 1 2 2 2 2 3 3 3 3 3 3 3 4 4 4 4 4 4 4 4
3 3 2 2 1 2 2 2 2 2 2 1 1 1 2 1 0 0 1 1 1 2 1 1 1 1 1 1 2 3 3 3 3 3 3 3 3 3 3 3 3 4 4 5
3 3 3 3 3 2 1 2 3 3 3 2 2 2 1 1 1 1 1 2 2 2 1 0 0 0 0 0 1 2 3 3 3 3 3 3 3 3 3 4 4 4 4 4
2 2 2 2 1 1 1 2 2 2 2 3 2 2 2 2 2 2 2 2 2 1 1 1 1 1 0 1 1 2 2 2 2 3 3 3 3 3 3 3 4 4 4 4
3 2 3 3 3 2 2 2 2 1 2 2 1 2 2 2 2 2 2 2 1 1 1 1 1 1 1 1 1 1 1 1 2 2 2 2 2 3 3 3 3 3 3 3
Wind_Direction
204 207 156 159 166 163 162 172 176 212 212 244 240 227 221 195 166 152 158 164 171 178 183 183 185 180 177 174 165 159 151 151 160 152 147 141 134 117 100 93 99 102 90 70
45 45 142 111 153 172 177 170 178 167 231 260 267 142 164 188 184 179 187 186 183 185 186 186 187 188 182 173 167 158 158 167 166 155 154 150 145 121 104 89 83 82 77 75
202 303 76 264 224 182 172 187 168 190 221 180 114 201 209 207 199 201 205 200 192 194 196 196 193 190 183 173 160 158 166 166 163 161 165 167 157 128 125 116 96 84 70 69
128 104 190 238 253 165 144 120 147 153 177 172 198 218 219 191 190 206 205 197 197 195 200 193 179 171 164 154 156 164 170 172 172 172 177 170 153 150 148 123 118 108 93 83
128 155 242 279 231 162 152 231 193 149 139 93 111 63 358 313 179 201 208 209 207 196 176 160 159 160 153 153 158 168 180 185 190 184 177 171 170 173 165 143 137 143 139 143
129 149 210 232 268 261 121 243 267 165 160 135 96 87 266 278 214 200 165 165 153 132 128 140 154 154 154 164 173 187 192 191 187 181 177 180 181 178 164 157 175 172 159 170
148 184 248 261 288 99 154 227 252 193 184 163 177 210 240 249 191 174 146 127 119 117 126 150 150 148 161 173 192 201 188 174 166 171 177 179 169 167 162 166 167 176 188 220
147 171 239 294 98 155 210 233 178 183 194 180 201 212 197 150 151 132 112 108 116 120 125 135 141 147 160 183 187 164 171 172 174 177 185 182 168 173 172 175 185 198 205 238
184 205 247 257 195 207 164 146 207 200 237 189 208 228 228 215 189 160 140 137 140 143 143 144 149 153 169 189 161 155 164 181 184 185 187 177 178 180 183 190 201 214 215 231
212 276 290 300 325 21 106 133 223 210 218 201 215 225 226 211 200 193 190 177 167 156 166 193 193 182 187 174 155 154 170 183 182 180 183 181 186 190 195 204 210 216 220 228
275 288 330 323 304 295 354 37 68 35 270 231 215 228 222 208 204 205 208 208 193 192 197 208 208 209 189 168 160 166 173 182 187 186 182 187 193 209 216 223 216 214 223 220
218 223 207 250 264 258 258 298 299 333 315 282 239 228 219 212 215 211 210 210 206 205 207 210 200 209 205 183 174 172 176 182 186 189 186 193 197 214 234 226 228 223 221 216
226 231 227 259 273 253 229 242 253 250 247 271 273 241 222 228 226 213 208 208 208 208 210 207 204 210 209 196 182 179 185 193 194 193 195 202 205 207 227 263 239 226 223 216
246 221 276 273 266 267 245 255 274 283 272 257 255 237 214 222 226 222 221 219 209 200 201 201 206 221 213 196 186 189 191 195 195 201 204 208 214 217 216 218 237 256 245 228
265 233 233 259 274 288 297 296 305 302 296 299 285 231 205 197 211 226 223 200 183 185 201 203 211 226 203 189 186 188 190 194 196 203 210 213 215 217 222 222 227 238 243 237
262 277 254 254 273 292 304 287 259 268 270 265 256 241 221 208 206 214 211 186 175 194 205 204 221 234 206 190 187 190 194 193 192 198 205 210 211 216 227 232 232 231 230 227
224 250 250 263 273 277 273 263 249 252 256 249 246 238 215 187 185 198 208 204 196 196 201 203 221 238 222 204 195 201 199 198 195 202 210 213 217 226 229 226 230 231 233 220
228 233 232 234 246 260 267 263 257 257 250 245 239 219 202 191 196 205 200 154 115 56 302 268 250 226 227 217 204 203 198 202 206 208 212 213 222 226 224 222 227 231 239 222
249 246 252 254 251 250 255 260 261 254 248 241 216 221 218 202 193 185 166 147 161 219 268 267 217 192 226 230 207 192 199 206 209 210 210 213 219 223 221 222 226 228 224 213
275 263 261 265 267 256 254 259 264 260 249 227 209 198 195 196 179 164 159 188 221 224 222 221 209 213 229 230 208 203 205 207 208 209 206 207 215 220 221 222 224 224 221 219
302 292 289 282 277 272 261 258 262 260 257 209 182 185 194 193 174 161 163 219 274 249 202 194 207 228 235 223 200 208 206 204 205 207 209 214 221 226 228 229 229 226 221 221
324 322 313 303 298 298 294 281 259 242 160 147 156 159 159 165 165 165 199 217 233 201 188 204 216 216 217 200 204 202 203 204 205 205 206 211 218 225 230 232 233 233 230 227
320 309 308 304 291 291 325 4 95 117 120 144 155 159 174 188 181 172 237 280 182 156 152 191 201 192 183 184 202 201 202 206 210 210 213 216 221 225 231 237 239 237 236 235
340 336 331 334 26 62 53 28 58 82 97 109 138 154 148 133 63 18 129 137 120 121 116 186 177 175 163 196 202 199 201 210 214 212 215 223 227 231 237 242 242 241 240 236
352 357 9 29 41 39 41 59 63 58 65 62 52 48 60 110 139 135 105 110 113 102 64 66 132 118 104 230 211 203 204 213 212 208 214 224 234 240 242 241 240 241 238 234
6 12 18 25 24 11 16 59 84 78 84 71 45 35 47 57 82 94 90 92 94 91 64 34 17 22 324 264 225 211 212 215 210 211 219 225 233 235 238 239 240 239 236 234
21 31 39 35 28 25 32 49 62 62 92 104 68 31 52 62 65 66 71 76 83 76 48 30 13 337 298 279 258 238 219 215 224 232 230 230 232 237 246 248 247 243 239 236
Height
1485 1481 1482 1484 1486 1489 1493 1498 1505 1502 1500 1492 1488 1487 1486 1487 1488 1490 1492 1495 1497 1500 1503 1505 1507 1509 1511 1514 1515 1516 1517 1518 1519 1520 1521 1522 1523 1523 1523 1523 1523 1524 1523 1523
1486 1482 1482 1486 1485 1487 1489 1491 1493 1494 1495 1487 1486 1486 1487 1487 1488 1489 1491 1493 1496 1499 1501 1503 1505 1508 1509 1511 1513 1515 1516 1517 1518 1518 1519 1520 1521 1521 1521 1521 1521 1522 1522 1522
1496 1487 1485 1495 1487 1486 1487 1485 1488 1493 1490 1486 1486 1486 1485 1486 1486 1488 1490 1492 1495 1497 1499 1501 1503 1505 1507 1508 1511 1512 1514 1515 1516 1517 1517 1519 1519 1519 1519 1520 1520 1520 1520 1520
1500 1494 1504 1492 1479 1480 1483 1484 1483 1484 1484 1484 1484 1484 1484 1485 1485 1486 1488 1490 1492 1494 1496 1499 1501 1503 1505 1507 1509 1510 1511 1513 1514 1515 1515 1516 1517 1517 1517 1518 1518 1518 1518 1518
1505 1505 1498 1486 1479 1480 1484 1487 1483 1483 1483 1483 1483 1484 1484 1485 1485 1486 1488 1489 1490 1492 1494 1496 1498 1500 1503 1504 1506 1508 1509 1511 1512 1512 1513 1514 1514 1514 1515 1516 1516 1516 1516 1516
1502 1502 1504 1487 1477 1475 1480 1489 1482 1481 1482 1483 1483 1488 1486 1484 1485 1486 1487 1488 1489 1490 1492 1494 1496 1498 1499 1501 1503 1504 1506 1508 1509 1510 1511 1511 1512 1513 1514 1514 1515 1515 1514 1514
1498 1499 1492 1479 1475 1475 1490 1488 1479 1479 1480 1481 1483 1484 1483 1483 1484 1485 1486 1487 1488 1489 1491 1492 1494 1496 1497 1499 1500 1502 1504 1505 1506 1507 1508 1509 1510 1511 1511 1512 1512 1512 1512 1512
1498 1498 1494 1476 1475 1479 1480 1476 1476 1477 1478 1479 1480 1480 1481 1482 1483 1484 1485 1486 1487 1488 1489 1491 1492 1494 1495 1496 1498 1500 1501 1503 1504 1504 1505 1506 1507 1508 1509 1509 1510 1509 1509 1509
1487 1487 1478 1475 1475 1475 1475 1475 1476 1476 1477 1478 1478 1479 1479 1480 1481 1482 1483 1485 1486 1487 1488 1489 1490 1491 1492 1494 1495 1496 1498 1500 1501 1502 1502 1503 1504 1504 1505 1506 1506 1506 1506 1507
1482 1478 1476 1474 1474 1474 1475 1475 1476 1477 1477 1477 1478 1478 1479 1479 1480 1481 1481 1483 1484 1485 1486 1487 1488 1489 1490 1491 1493 1494 1495 1496 1497 1498 1499 1500 1500 1501 1502 1502 1503 1503 1503 1503
1481 1477 1475 1474 1474 1474 1474 1475 1475 1476 1477 1477 1477 1477 1477 1478 1478 1479 1479 1480 1481 1482 1483 1484 1485 1486 1487 1488 1489 1491 1492 1494 1494 1495 1495 1496 1497 1498 1499 1499 1500 1500 1500 1500
1478 1474 1475 1474 1473 1474 1474 1474 1474 1474 1474 1475 1475 1475 1475 1476 1476 1477 1477 1478 1478 1479 1480 1481 1481 1483 1485 1486 1486 1488 1489 1490 1491 1492 1492 1493 1493 1494 1494 1495 1496 1497 1497 1497
1471 1472 1472 1472 1472 1472 1472 1472 1472 1473 1473 1473 1473 1473 1473 1473 1473 1474 1474 1474 1474 1475 1476 1477 1478 1480 1481 1482 1483 1484 1486 1487 1487 1488 1488 1489 1490 1490 1490 1491 1492 1492 1493 1493
1469 1470 1470 1469 1469 1470 1470 1470 1470 1470 1470 1470 1470 1470 1470 1470 1470 1470 1470 1471 1471 1472 1473 1474 1474 1475 1477 1478 1479 1481 1482 1483 1483 1484 1485 1486 1486 1486 1486 1487 1487 1488 1489 1489
1468 1468 1468 1467 1468 1468 1468 1467 1467 1467 1467 1467 1467 1467 1467 1467 1467 1467 1468 1468 1468 1469 1470 1470 1471 1472 1474 1475 1476 1477 1478 1479 1480 1481 1482 1482 1483 1483 1483 1483 1484 1484 1484 1485
1466 1466 1466 1466 1465 1465 1465 1464 1464 1464 1464 1463 1463 1463 1464 1464 1464 1464 1465 1465 1465 1465 1466 1467 1468 1469 1470 1471 1472 1474 1474 1475 1476 1477 1478 1479 1480 1480 1480 1480 1480 1480 1480 1480
1464 1463 1463 1463 1463 1462 1462 1462 1461 1461 1460 1460 1460 1461 1460 1460 1461 1461 1462 1462 1463 1463 1465 1465 1465 1466 1468 1469 1470 1471 1471 1472 1473 1474 1475 1476 1476 1477 1477 1477 1477 1476 1476 1476
1461 1460 1460 1461 1460 1459 1458 1458 1458 1458 1457 1457 1457 1458 1457 1457 1458 1458 1459 1459 1460 1462 1463 1463 1463 1464 1465 1467 1467 1467 1468 1469 1470 1471 1472 1472 1473 1474 1474 1474 1473 1473 1473 1473
1458 1457 1457 1457 1457 1456 1456 1455 1455 1454 1454 1455 1454 1454 1455 1455 1455 1456 1456 1457 1458 1458 1460 1461 1462 1462 1464 1464 1463 1463 1464 1466 1467 1467 1468 1469 1470 1470 1470 1470 1470 1470 1470 1470
1454 1454 1454 1454 1453 1452 1452 1451 1451 1451 1451 1451 1451 1452 1452 1453 1454 1454 1454 1455 1456 1457 1458 1459 1460 1460 1461 1461 1461 1461 1462 1462 1463 1464 1464 1465 1466 1466 1467 1467 1467 1467 1467 1467
1450 1450 1450 1450 1450 1449 1449 1448 1449 1448 1448 1448 1449 1450 1451 1452 1452 1452 1452 1453 1454 1455 1456 1457 1457 1458 1458 1458 1458 1459 1459 1460 1460 1461 1461 1461 1462 1463 1463 1464 1464 1464 1464 1464
1449 1449 1449 1449 1448 1447 1447 1447 1447 1446 1445 1447 1448 1449 1450 1450 1451 1451 1452 1452 1453 1454 1454 1454 1455 1455 1456 1456 1456 1456 1456 1457 1457 1458 1458 1458 1459 1459 1460 1460 1460 1460 1460 1461
1448 1448 1448 1447 1447 1446 1446 1446 1446 1446 1446 1447 1447 1448 1449 1449 1449 1450 1450 1451 1451 1452 1452 1452 1453 1453 1453 1453 1453 1453 1453 1453 1454 1454 1455 1455 1456 1456 1456 1456 1456 1457 1457 1458
1448 1447 1447 1447 1446 1445 1445 1445 1446 1446 1446 1447 1448 1448 1448 1448 1449 1449 1450 1450 1450 1450 1451 1451 1451 1451 1450 1450 1450 1450 1450 1450 1451 1451 1452 1452 1453 1453 1453 1453 1453 1453 1454 1454
1448 1447 1447 1447 1446 1446 1446 1446 1446 1446 1447 1447 1448 1448 1448 1449 1449 1449 1449 1449 1450 1450 1450 1449 1449 1449 1448 1447 1447 1446 1447 1448 1448 1449 1450 1450 1450 1451 1451 1450 1450 1450 1450 1450
1449 1449 1448 1448 1448 1448 1447 1447 1446 1447 1447 1447 1448 1448 1449 1449 1449 1449 1449 1449 1449 1449 1448 1448 1448 1447 1447 1446 1445 1445 1445 1446 1446 1447 1448 1448 1448 1448 1448 1448 1447 1447 1447 1447
1451 1450 1450 1449 1449 1449 1449 1448 1448 1448 1448 1449 1449 1449 1449 1449 1449 1449 1449 1449 1449 1448 1448 1447 1447 1447 1446 1445 1445 1444 1444 1444 1445 1445 1445 1445 1445 1445 1445 1445 1444 1444 1444 1444